Location: Brookfield Center
(41.2406°N, 80.5579°W)
Time: 14:03:48
(UTC+00:00)

STARLINK-72 - Pass Details

Date: 18 January 2020
Orbit: 528 x 531 km, 53.0° (Epoch: 17 February)

Event Time Altitude Azimuth Distance (km) Brightness Sun altitude
Rises 11:39:42 0° 225° (SW) 2,653 6.8 -12.1°
Reaches altitude 10° 11:41:54 10° 224° (SW) 1,768 5.9 -11.7°
Maximum altitude 11:45:54 74° 140° (SE) 555 3.8 -11.0°
Drops below altitude 10° 11:49:56 10° 55° (NE) 1,781 6.7 -10.3°
Sets 11:52:09 0° 53° (NE) 2,674 7.7 -9.9°
